When you browse on this site, cookies collect data to enhance your experience and personalize the content and advertising you see.
Visit our Privacy Policy to learn more. By continuing to use the site, you agree to this use of cookies and data.
  • In Lithuania
  • List of Countries
  • For 7 days
  • Water Temperature
  • Satellite Maps
  • Weather Map
  • Weather Widgets
  • user-avatar
    Login

    Hourly Weather Bafoussam

    Today, 20 July, Saturday

    Time Temperature Precipitation Wind Pressure Humidity
    00:00 +18°C° 0.1 mm 1 mps 645 mmHg 97%
    01:00 +18°C° 0.1 mm 1 mps 645 mmHg 97%
    02:00 +18°C° 0.3 mm 1 mps 645 mmHg 97%
    03:00 +18°C° 0.3 mm 1 mps 644 mmHg 97%
    04:00 +16°C° 0.3 mm 0 mps 644 mmHg 97%
    05:00 +16°C° 0.6 mm 0 mps 644 mmHg 97%
    06:00 +18°C° 0.6 mm 1 mps 645 mmHg 97%
    07:00 +18°C° 0.6 mm 1 mps 645 mmHg 97%
    08:00 +19°C° 0.2 mm 1 mps 646 mmHg 94%
    09:00 +20°C° 0.2 mm 1 mps 647 mmHg 91%
    10:00 +22°C° 0.2 mm 1 mps 647 mmHg 88%
    11:00 +22°C° 1.6 mm 1 mps 647 mmHg 88%
    12:00 +20°C° 1.6 mm 0 mps 647 mmHg 88%
    13:00 +21°C° 1.6 mm 0 mps 646 mmHg 89%
    14:00 +21°C° 1.8 mm 0 mps 645 mmHg 89%
    15:00 +21°C° 1.8 mm 0 mps 645 mmHg 89%
    16:00 +21°C° 1.8 mm 0 mps 644 mmHg 89%
    17:00 +19°C° 1.3 mm 0 mps 644 mmHg 91%
    18:00 +20°C° 1.3 mm 1 mps 644 mmHg 93%
    19:00 +19°C° 1.3 mm 1 mps 644 mmHg 95%
    20:00 +19°C° 0.7 mm 1 mps 645 mmHg 95%
    21:00 +18°C° 0.7 mm 1 mps 645 mmHg 96%
    22:00 +18°C° 0.7 mm 1 mps 645 mmHg 96%
    23:00 +18°C° 0 mm 1 mps 645 mmHg 96%

    Tomorrow, 21 July, Sunday

    Time Temperature Precipitation Wind Pressure Humidity
    00:00 +16°C° 0 mm 1 mps 645 mmHg 96%
    01:00 +16°C° 0 mm 1 mps 645 mmHg 97%
    02:00 +16°C° 0 mm 1 mps 644 mmHg 97%
    03:00 +16°C° 0 mm 1 mps 644 mmHg 97%
    04:00 +16°C° 0 mm 1 mps 644 mmHg 97%
    05:00 +18°C° 0.1 mm 1 mps 644 mmHg 96%
    06:00 +18°C° 0.1 mm 1 mps 645 mmHg 96%
    07:00 +18°C° 0.1 mm 1 mps 645 mmHg 96%
    08:00 +19°C° 0.7 mm 1 mps 646 mmHg 94%
    09:00 +21°C° 0.7 mm 1 mps 646 mmHg 92%
    10:00 +22°C° 0.7 mm 1 mps 647 mmHg 90%
    11:00 +22°C° 1.3 mm 1 mps 646 mmHg 89%
    12:00 +22°C° 1.3 mm 1 mps 646 mmHg 89%
    13:00 +23°C° 1.3 mm 1 mps 645 mmHg 89%
    14:00 +23°C° 1.7 mm 1 mps 645 mmHg 89%
    15:00 +23°C° 1.7 mm 1 mps 644 mmHg 88%
    16:00 +23°C° 1.7 mm 1 mps 644 mmHg 88%
    17:00 +22°C° 1.5 mm 1 mps 644 mmHg 91%
    18:00 +21°C° 1.5 mm 1 mps 644 mmHg 93%
    19:00 +20°C° 1.5 mm 1 mps 644 mmHg 95%
    20:00 +19°C° 1.3 mm 1 mps 644 mmHg 96%
    21:00 +17°C° 1.3 mm 0 mps 645 mmHg 97%
    22:00 +17°C° 1.3 mm 0 mps 645 mmHg 97%
    23:00 +17°C° 1.2 mm 0 mps 645 mmHg 98%

    Day after tomorrow, 22 July, Monday

    Time Temperature Precipitation Wind Pressure Humidity
    00:00 +18°C° 1.2 mm 1 mps 645 mmHg 98%
    01:00 +18°C° 1.2 mm 1 mps 644 mmHg 98%
    02:00 +18°C° 0.7 mm 1 mps 644 mmHg 98%
    03:00 +18°C° 0.7 mm 1 mps 644 mmHg 98%
    04:00 +18°C° 0.7 mm 1 mps 644 mmHg 98%
    05:00 +18°C° 0.6 mm 1 mps 644 mmHg 98%
    06:00 +18°C° 0.6 mm 1 mps 644 mmHg 98%
    07:00 +16°C° 0.6 mm 0 mps 645 mmHg 97%
    08:00 +19°C° 0.7 mm 1 mps 645 mmHg 97%
    09:00 +20°C° 0.7 mm 1 mps 646 mmHg 96%
    10:00 +20°C° 0.7 mm 1 mps 646 mmHg 95%
    11:00 +20°C° 0.8 mm 1 mps 646 mmHg 95%
    12:00 +20°C° 0.8 mm 1 mps 645 mmHg 96%
    13:00 +20°C° 0.8 mm 1 mps 645 mmHg 96%
    14:00 +20°C° 1.3 mm 1 mps 645 mmHg 96%
    15:00 +19°C° 1.3 mm 1 mps 644 mmHg 96%
    16:00 +19°C° 1.3 mm 1 mps 644 mmHg 96%
    17:00 +19°C° 0.8 mm 1 mps 644 mmHg 96%
    18:00 +18°C° 0.8 mm 1 mps 644 mmHg 97%
    19:00 +18°C° 0.8 mm 1 mps 644 mmHg 97%
    20:00 +18°C° 0.2 mm 1 mps 644 mmHg 97%
    21:00 +18°C° 0.2 mm 1 mps 645 mmHg 97%
    22:00 +18°C° 0.2 mm 1 mps 645 mmHg 96%
    23:00 +16°C° 0 mm 1 mps 645 mmHg 96%

    23 July, Tuesday

    Time Temperature Precipitation Wind Pressure Humidity
    00:00 +16°C° 0 mm 1 mps 644 mmHg 97%
    01:00 +16°C° 0 mm 1 mps 644 mmHg 97%
    02:00 +16°C° 0 mm 1 mps 644 mmHg 97%
    03:00 +16°C° 0 mm 1 mps 644 mmHg 97%
    04:00 +16°C° 0 mm 1 mps 643 mmHg 98%
    05:00 +16°C° 0 mm 1 mps 644 mmHg 97%
    06:00 +16°C° 0 mm 1 mps 644 mmHg 97%
    07:00 +18°C° 0 mm 1 mps 645 mmHg 97%
    08:00 +19°C° 0.1 mm 1 mps 645 mmHg 95%
    09:00 +20°C° 0.1 mm 1 mps 646 mmHg 93%
    10:00 +18°C° 0.1 mm 0 mps 647 mmHg 91%
    11:00 +21°C° 1.3 mm 1 mps 646 mmHg 90%
    12:00 +22°C° 1.3 mm 1 mps 646 mmHg 89%
    13:00 +23°C° 1.3 mm 1 mps 646 mmHg 88%
    14:00 +23°C° 2 mm 1 mps 645 mmHg 90%
    15:00 +22°C° 2 mm 1 mps 644 mmHg 92%
    16:00 +21°C° 2 mm 1 mps 644 mmHg 93%
    17:00 +20°C° 1.2 mm 1 mps 644 mmHg 94%
    18:00 +20°C° 1.2 mm 1 mps 644 mmHg 95%
    19:00 +19°C° 1.2 mm 1 mps 644 mmHg 96%
    20:00 +19°C° 0.5 mm 1 mps 644 mmHg 96%
    21:00 +19°C° 0.5 mm 1 mps 644 mmHg 97%
    22:00 +18°C° 0.5 mm 1 mps 645 mmHg 97%
    23:00 +18°C° 0.6 mm 1 mps 644 mmHg 97%

    24 July, Wednesday

    Time Temperature Precipitation Wind Pressure Humidity
    00:00 +18°C° 0.6 mm 1 mps 644 mmHg 97%
    01:00 +18°C° 0.6 mm 1 mps 644 mmHg 98%
    02:00 +18°C° 0.4 mm 1 mps 644 mmHg 98%
    03:00 +18°C° 0.4 mm 1 mps 644 mmHg 98%
    04:00 +18°C° 0.4 mm 1 mps 644 mmHg 98%
    05:00 +18°C° 0.4 mm 1 mps 644 mmHg 98%
    06:00 +18°C° 0.4 mm 1 mps 644 mmHg 98%
    07:00 +18°C° 0.4 mm 1 mps 645 mmHg 98%
    08:00 +19°C° 0.6 mm 1 mps 645 mmHg 97%
    09:00 +20°C° 0.6 mm 1 mps 646 mmHg 96%
    10:00 +20°C° 0.6 mm 1 mps 646 mmHg 95%
    11:00 +20°C° 1 mm 1 mps 646 mmHg 94%
    12:00 +21°C° 1 mm 1 mps 645 mmHg 93%
    13:00 +21°C° 1 mm 1 mps 645 mmHg 92%
    14:00 +22°C° 0.6 mm 1 mps 644 mmHg 89%
    15:00 +21°C° 0.6 mm 2 mps 644 mmHg 86%
    16:00 +21°C° 0.6 mm 2 mps 644 mmHg 84%
    17:00 +20°C° 0.8 mm 2 mps 644 mmHg 88%
    18:00 +20°C° 0.8 mm 1 mps 643 mmHg 92%
    19:00 +19°C° 0.8 mm 1 mps 643 mmHg 96%
    20:00 +19°C° 0.3 mm 1 mps 644 mmHg 96%
    21:00 +19°C° 0.3 mm 1 mps 644 mmHg 96%
    22:00 +19°C° 0.3 mm 1 mps 645 mmHg 96%
    23:00 +18°C° 0 mm 1 mps 644 mmHg 97%

    25 July, Thursday

    Time Temperature Precipitation Wind Pressure Humidity
    00:00 +18°C° 0 mm 1 mps 644 mmHg 97%
    01:00 +18°C° 0 mm 1 mps 644 mmHg 97%
    02:00 +18°C° 0 mm 1 mps 644 mmHg 97%
    03:00 +18°C° 0 mm 1 mps 644 mmHg 96%
    04:00 +18°C° 0 mm 1 mps 644 mmHg 96%
    05:00 +18°C° 0 mm 1 mps 644 mmHg 96%
    06:00 +18°C° 0 mm 1 mps 644 mmHg 96%
    07:00 +18°C° 0 mm 1 mps 645 mmHg 96%
    08:00 +17°C° 0 mm 0 mps 645 mmHg 94%
    09:00 +17°C° 0 mm 0 mps 646 mmHg 93%
    10:00 +18°C° 0 mm 0 mps 646 mmHg 91%
    11:00 +19°C° 0.1 mm 0 mps 646 mmHg 88%
    12:00 +20°C° 0.1 mm 0 mps 645 mmHg 86%
    13:00 +21°C° 0.1 mm 0 mps 645 mmHg 83%
    14:00 +21°C° 0.7 mm 0 mps 644 mmHg 82%
    15:00 +24°C° 0.7 mm 1 mps 644 mmHg 81%
    16:00 +24°C° 0.7 mm 1 mps 644 mmHg 80%
    17:00 +22°C° 0.9 mm 1 mps 644 mmHg 85%
    18:00 +21°C° 0.9 mm 1 mps 643 mmHg 91%
    19:00 +19°C° 0.9 mm 1 mps 643 mmHg 96%
    20:00 +19°C° 0.4 mm 1 mps 644 mmHg 97%
    21:00 +19°C° 0.4 mm 1 mps 644 mmHg 97%
    22:00 +18°C° 0.4 mm 2 mps 645 mmHg 97%
    23:00 +18°C° 1.2 mm 2 mps 644 mmHg 97%
    Show more